Content
SEND FEEDBACK

Daily
Averages
Monthly
Summary
United States of America

GALVA, ILLINOIS


Home > North America > United States > Illinois
Elevation: 827 feet     Latitude: 41 10N     Longitude: 090 03W

WEATHER
 
SELECT A DAY
Number of Records: 327,184;   Date Range: 9/9/96 - 9/30/14
 
SHARE

PRINT THIS DATA

[ ← Previous Day ]
WEATHER ALMANAC - JANUARY 31, 2013
[ Next Day → ]
[ °C ]   °F
Weather ElementAverageHighLow
Temperature11.6 °F20.8 °F (2:55 am)4.1 °F (11:15 pm)
Dewpoint5.8 °F17.6 °F (3:15 am)-2.2 °F (8:55 pm)
Humidity77.6 %89 % (3:15 am)68 % (6:15 pm)
Barometer30.01 in30.28 in (11:35 pm)29.80 in (12:35 am)
Wind Speed19.4 mph27.6 mph (5:35 pm)
Wind Gust34.5 mph (5:35 pm)
Weather ElementAverage
Visibility8.1 mi
Wind DirectionWNW (280.4 °)

Weather ElementTotal
Precipitation---
Heating Degree Days52.6 (Base 65)
Averaged from 70 records on January 31, 2013
WEATHER CONDITIONS BREAKOUT
WIND DIRECTION BREAKOUT
WEATHER BY HOUR - JANUARY 31, 2013
[ °C ]   °F
Local TimeTemperatureDewpointHumidityBarometerVisibilityWind DirectionWind SpeedGust SpeedPrecipitationEventsConditions
12:35 AM17.2 °F12.2 °F81 %29.80 in10.0 miWest (270°)11.5 mph21.9 mphMostly Cloudy
12:55 AM18.1 °F13.3 °F81 %29.80 in10.0 miWest (260°)13.8 mphOvercast
1:15 AM19.2 °F14.2 °F81 %29.80 in10.0 miWest (260°)16.1 mph21.9 mphOvercast
1:35 AM19.6 °F14.9 °F82 %29.80 in10.0 miWest (270°)18.4 mph23.0 mphOvercast
1:55 AM20.1 °F15.3 °F81 %29.81 in10.0 miWest (260°)16.1 mph20.7 mphOvercast
2:15 AM20.3 °F16.0 °F83 %29.82 in10.0 miWest (260°)16.1 mph23.0 mphOvercast
2:35 AM20.7 °F16.5 °F84 %29.82 in7.0 miWest (260°)16.1 mphSnowLight Snow
2:55 AM20.8 °F17.1 °F85 %29.82 in5.0 miWest (270°)15.0 mphSnowLight Snow
3:15 AM20.5 °F17.6 °F89 %29.82 in1.8 miWest (280°)10.4 mph18.4 mphSnowLight Snow
3:35 AM20.3 °F16.5 °F85 %29.82 in7.0 miWest (270°)19.6 mph27.6 mphSnowLight Snow
3:55 AM19.8 °F15.1 °F82 %29.82 in7.0 miWest (270°)25.3 mph29.9 mphSnowLight Snow
4:15 AM19.0 °F14.2 °F81 %29.83 in10.0 miWNW (290°)20.7 mph27.6 mphSnowLight Snow
4:35 AM16.5 °F11.8 °F82 %29.83 in10.0 miWNW (290°)17.3 mph25.3 mphMostly Cloudy
4:55 AM15.6 °F11.1 °F82 %29.84 in10.0 miWNW (290°)16.1 mphClear
5:15 AM14.9 °F8.8 °F77 %29.85 in10.0 miWest (280°)15.0 mph21.9 mphClear
5:35 AM14.7 °F9.3 °F79 %29.86 in10.0 miWest (280°)16.1 mph23.0 mphClear
5:55 AM14.0 °F9.0 °F80 %29.86 in10.0 miWest (280°)19.6 mph26.5 mphScattered Clouds
6:15 AM13.6 °F8.6 °F80 %29.86 in10.0 miWest (280°)13.8 mph19.6 mphClear
6:35 AM13.3 °F9.1 °F84 %29.88 in10.0 miWest (280°)10.4 mph17.3 mphSnowLight Snow
6:55 AM13.1 °F9.0 °F84 %29.88 in10.0 miWest (280°)13.8 mph17.3 mphMostly Cloudy
7:15 AM13.1 °F9.0 °F84 %29.89 in7.0 miWest (280°)11.5 mphSnowLight Snow
7:35 AM12.9 °F8.6 °F83 %29.89 in10.0 miWest (280°)12.7 mphMostly Cloudy
7:55 AM12.4 °F7.9 °F82 %29.91 in7.0 miWest (280°)15.0 mphSnowLight Snow
8:15 AM12.6 °F7.7 °F81 %29.91 in10.0 miWest (280°)17.3 mph24.2 mphMostly Cloudy
8:35 AM12.0 °F7.3 °F81 %29.92 in10.0 miWest (280°)19.6 mph26.5 mphMostly Cloudy
8:55 AM11.8 °F7.2 °F81 %29.94 in7.0 miWest (270°)21.9 mph26.5 mphOvercast
9:15 AM11.8 °F6.1 °F78 %29.94 in7.0 miWest (280°)21.9 mphOvercast
9:35 AM12.2 °F5.2 °F73 %29.95 in10.0 miWNW (290°)20.7 mph29.9 mphOvercast
9:55 AM11.8 °F6.1 °F78 %29.97 in4.0 miWNW (290°)19.6 mphHaze
10:15 AM12.2 °F5.7 °F75 %29.98 in7.0 miWest (280°)16.1 mph24.2 mphOvercast
10:35 AM13.1 °F5.9 °F73 %29.98 in10.0 miWNW (290°)16.1 mph25.3 mphOvercast
10:55 AM12.2 °F5.4 °F74 %29.99 in10.0 miWNW (290°)19.6 mph24.2 mphOvercast
11:15 AM12.7 °F5.7 °F74 %29.99 in10.0 miWest (280°)19.6 mphMostly Cloudy
11:35 AM12.6 °F5.7 °F74 %30.00 in10.0 miWNW (290°)20.7 mphOvercast
11:55 AM12.7 °F5.5 °F73 %30.00 in10.0 miWest (280°)20.7 mph27.6 mphOvercast
12:15 PM12.2 °F4.5 °F71 %30.00 in10.0 miWest (280°)21.9 mph29.9 mphOvercast
12:35 PM12.7 °F5.5 °F73 %30.00 in10.0 miWest (280°)19.6 mph29.9 mphMostly Cloudy
12:55 PM11.7 °F4.1 °F72 %30.01 in10.0 miWest (270°)20.7 mph28.8 mphMostly Cloudy
1:15 PM11.3 °F3.7 °F72 %30.01 in10.0 miWest (280°)23.0 mph31.1 mphMostly Cloudy
1:35 PM11.7 °F4.5 °F73 %30.02 in10.0 miWNW (290°)21.9 mph29.9 mphOvercast
1:55 PM12.0 °F5.2 °F74 %30.02 in10.0 miWest (280°)21.9 mph28.8 mphOvercast
2:15 PM11.3 °F4.6 °F75 %30.03 in10.0 miWest (270°)24.2 mph31.1 mphOvercast
2:35 PM10.9 °F4.6 °F76 %30.04 in4.0 miWest (280°)21.9 mph29.9 mphHaze
2:55 PM10.8 °F3.9 °F74 %30.05 in4.0 miWest (280°)26.5 mph32.2 mphHaze
3:15 PM10.2 °F3.6 °F74 %30.07 in7.0 miWest (280°)24.2 mph29.9 mphOvercast
3:35 PM10.2 °F2.7 °F72 %30.08 in10.0 miWest (280°)19.6 mph32.2 mphMostly Cloudy
3:55 PM10.0 °F2.5 °F72 %30.09 in10.0 miWest (280°)23.0 mph31.1 mphOvercast
4:15 PM9.1 °F2.5 °F74 %30.09 in7.0 miWest (280°)24.2 mph32.2 mphOvercast
4:35 PM8.4 °F2.3 °F76 %30.11 in4.0 miWest (280°)21.9 mph32.2 mphHaze
4:55 PM8.1 °F0.1 °F70 %30.12 in5.0 miWest (280°)24.2 mph32.2 mphHaze
5:15 PM7.5 °F0.5 °F73 %30.13 in10.0 miWest (280°)18.4 mph29.9 mphMostly Cloudy
5:35 PM7.7 °F-0.6 °F69 %30.13 in10.0 miWest (280°)27.6 mph34.5 mphOvercast
5:55 PM7.0 °F-1.1 °F69 %30.14 in10.0 miWest (280°)25.3 mph29.9 mphMostly Cloudy
6:15 PM6.8 °F-1.7 °F68 %30.15 in10.0 miWNW (290°)25.3 mph34.5 mphMostly Cloudy
6:35 PM6.8 °F1.8 °F80 %30.16 in2.5 miWest (280°)21.9 mph33.4 mphSnowLight Snow
6:55 PM6.4 °F-0.8 °F72 %30.17 in5.0 miWest (280°)25.3 mph33.4 mphHaze
7:15 PM5.9 °F0.1 °F77 %30.18 in7.0 miWest (280°)25.3 mph31.1 mphOvercast
7:35 PM5.9 °F0.9 °F80 %30.19 in5.0 miWest (280°)23.0 mph27.6 mphHaze
7:55 PM5.0 °F1.4 °F85 %30.19 in3.0 miWest (280°)23.0 mph28.8 mphHaze
8:15 PM5.9 °F0.9 °F80 %30.20 in4.0 miWest (280°)19.6 mph29.9 mphHaze
8:35 PM5.4 °F0.1 °F79 %30.21 in7.0 miWNW (290°)24.2 mph28.8 mphOvercast
8:55 PM5.0 °F-2.2 °F72 %30.21 in10.0 miWNW (290°)23.0 mph31.1 mphMostly Cloudy
9:15 PM5.0 °F-2.2 °F72 %30.22 in7.0 miWNW (290°)20.7 mph32.2 mphOvercast
9:35 PM4.8 °F-1.5 °F75 %30.24 in10.0 miWNW (290°)19.6 mph28.8 mphOvercast
9:55 PM5.0 °F-0.4 °F78 %30.25 in7.0 miWNW (300°)18.4 mph24.2 mphOvercast
10:15 PM4.6 °F-1.1 °F77 %30.26 in10.0 miWest (280°)18.4 mph26.5 mphOvercast
10:35 PM4.6 °F-0.4 °F80 %30.26 in4.0 miWNW (290°)15.0 mph21.9 mphOvercast
10:55 PM4.5 °F-0.8 °F79 %30.26 in7.0 miWNW (290°)20.7 mph26.5 mphOvercast
11:15 PM4.1 °F-0.9 °F80 %30.27 in7.0 miWNW (290°)11.5 mph24.2 mphMostly Cloudy
11:35 PM4.1 °F-1.1 °F79 %30.28 in5.0 miWNW (300°)17.3 mph24.2 mphHaze
Hourly data recorded from KGBG, located miles away from Galva, Illinois







STORIES FROM OUR PARTNERS